Location: Roland
(31.1349°N, 85.4372°W)
Time: 17:53:20
(UTC+00:00)

SR - Pass Details

Date: 23 April 2021
Orbit: 573 x 882 km, 66.7° (Epoch: 12 May)

Event Time Altitude Azimuth Distance (km) Brightness Sun altitude
Rises 10:38:38 0° 169° (S) 3,207 ? -6.2°
Reaches altitude 10° 10:41:26 10° 154° (SSE) 2,339 ? -5.6°
Maximum altitude 10:45:31 22° 105° (ESE) 1,716 ? -4.8°
Drops below altitude 10° 10:49:49 10° 56° (NE) 2,477 ? -3.9°
Sets 10:52:51 0° 42° (NE) 3,448 ? -3.3°
